Wind_Speed
16 16 16 16 16 16 16 15 16 16 16 16 17 17 17 17 17 17 17 16 16 16 16 16 15 15 16 15 15 15 15 14 14 14 15 14 14 13 13 13 13 13 13
18 18 19 18 18 18 18 17 17 17 17 18 18 18 18 19 19 19 19 19 18 18 18 18 18 18 17 17 17 17 17 17 16 16 16 16 15 15 15 14 14 14 15
19 20 20 20 20 20 20 20 19 19 19 19 19 19 20 20 20 20 20 20 20 19 19 20 19 19 19 19 19 19 19 19 19 19 18 18 18 17 17 17 16 16 16
20 20 21 21 21 21 21 21 21 21 21 21 21 21 21 21 21 22 22 22 22 22 21 21 21 21 21 21 20 20 20 20 21 20 20 19 19 19 19 19 18 18 18
21 22 22 22 22 22 23 23 23 23 23 23 23 23 23 23 23 23 23 23 23 23 23 23 23 23 23 22 22 22 22 22 22 22 22 21 21 21 20 20 20 20 20
23 23 23 23 23 24 24 24 24 25 25 25 25 25 25 25 25 25 25 25 25 25 26 25 25 25 25 24 24 23 23 23 23 23 23 23 23 23 22 22 22 21 21
24 24 24 24 25 25 25 25 25 26 26 26 26 26 27 27 27 27 27 27 27 27 27 27 27 27 26 26 26 25 25 24 24 24 24 24 24 24 24 23 23 23 23
26 26 26 27 27 27 27 27 27 28 28 28 28 28 28 28 28 29 29 29 28 28 28 29 29 29 28 28 28 27 27 27 26 25 25 26 26 26 25 25 25 24 24
28 28 29 29 29 29 30 30 30 30 30 30 30 30 30 30 30 30 31 31 31 31 31 30 30 30 30 30 29 29 30 29 29 28 27 28 27 27 27 27 27 27 26
29 29 30 30 31 31 31 32 32 32 32 32 32 32 32 33 32 32 33 33 34 34 33 33 33 33 33 33 32 32 32 31 31 31 30 30 29 28 28 29 28 29 28
29 29 30 31 31 32 33 33 34 34 34 34 34 34 35 35 35 35 35 36 36 36 36 36 36 36 36 36 36 35 34 34 33 33 32 32 32 32 31 31 30 30 30
30 30 31 32 33 33 34 34 35 36 36 36 36 36 36 37 37 37 37 38 38 38 38 38 39 39 39 38 38 38 37 37 36 35 35 35 35 35 34 34 33 33 32
30 31 32 33 33 34 35 35 36 36 37 38 38 38 39 39 39 39 39 39 40 40 40 40 41 40 41 40 40 40 39 39 39 38 38 38 37 37 37 36 36 35 35
30 31 32 33 34 35 36 36 37 37 38 38 39 39 40 40 40 41 41 41 42 42 42 43 43 43 43 43 42 42 42 41 41 41 41 40 40 39 39 38 37 37 36
30 31 32 33 34 35 36 37 38 39 39 40 41 41 41 42 43 43 44 44 44 44 45 45 45 45 45 45 45 45 45 44 44 43 43 43 42 42 41 40 40 39 39
31 32 33 34 35 36 37 38 38 39 40 41 42 43 44 44 45 45 46 46 46 47 47 48 48 48 49 48 48 48 48 48 47 47 46 46 45 45 43 43 43 42 41
31 32 33 34 35 36 38 39 39 40 41 42 43 44 45 45 46 47 47 47 48 49 49 50 50 50 50 50 50 50 50 50 50 50 49 48 48 47 46 46 46 44 43
32 33 34 35 36 37 38 39 40 41 42 42 44 45 46 47 47 48 48 49 49 50 51 52 52 53 53 53 53 53 53 53 52 52 51 50 50 49 48 48 47 46 46
33 34 35 36 37 37 38 39 40 41 42 43 44 46 47 48 48 49 50 50 51 52 53 54 54 54 55 55 55 55 54 55 54 54 53 52 52 51 50 49 49 48 47
34 35 36 36 37 38 38 39 40 41 42 43 44 45 47 48 49 50 51 51 52 53 54 55 55 56 57 57 56 56 56 56 56 56 56 54 54 53 52 52 50 50 49
35 36 36 37 37 38 39 40 41 42 43 44 46 47 48 49 50 51 52 53 54 55 56 57 57 57 58 59 59 59 59 59 59 58 57 56 55 55 54 54 53 52 52
36 37 38 38 39 39 40 41 42 44 45 46 48 49 50 51 52 52 54 55 56 56 57 58 59 59 59 60 61 61 61 60 59 59 58 58 57 57 56 56 56 55 55
37 38 39 40 40 41 42 43 44 46 47 48 49 50 52 53 54 55 56 57 58 59 59 60 61 61 61 61 62 63 63 62 61 61 61 60 59 59 58 57 58 58 57
39 40 41 41 42 44 45 46 47 48 49 51 51 52 53 55 56 57 58 59 60 61 61 61 62 62 62 62 62 63 64 64 64 62 62 62 61 61 60 59 60 59 58
40 41 42 43 44 45 47 49 50 51 52 52 53 54 56 57 58 59 60 60 61 62 62 62 63 63 63 63 63 63 63 64 65 65 64 63 62 61 60 59 60 60 58
41 42 43 44 45 47 48 50 51 53 54 54 55 56 58 59 60 61 61 61 62 63 63 63 63 64 64 64 64 64 64 64 64 64 64 63 61 59 58 57 58 58 57
Wind_Direction
249 249 250 252 254 255 257 257 259 260 260 261 263 264 264 264 265 268 270 271 272 272 272 270 270 272 271 269 269 272 275 277 279 280 278 278 281 285 287 289 292 294 297
250 250 250 252 253 255 257 258 259 260 261 262 263 264 265 265 265 267 269 271 272 273 273 273 271 272 273 271 269 270 272 274 277 280 278 279 282 283 283 286 288 290 292
250 252 252 252 253 255 257 258 259 260 261 262 264 265 265 265 266 266 267 269 272 273 274 272 272 271 272 271 271 271 271 273 275 278 279 277 280 283 284 283 285 287 288
251 252 253 254 254 255 256 258 259 260 261 262 263 265 266 267 267 267 268 269 270 272 273 274 272 272 273 272 272 272 272 272 273 275 277 277 277 280 281 281 282 284 286
251 253 255 256 256 256 256 257 259 260 260 261 262 264 266 267 269 268 269 269 270 271 272 273 273 274 276 276 275 274 274 272 271 272 275 277 276 277 278 279 281 281 282
253 254 256 257 257 258 258 258 259 260 261 262 263 264 265 266 268 269 269 269 270 271 271 272 272 273 275 276 277 277 276 275 274 274 274 275 276 275 276 277 279 281 280
255 255 256 257 257 258 259 260 261 262 262 263 264 264 265 266 267 268 269 270 270 271 271 272 272 272 273 274 274 275 275 275 276 276 274 275 276 275 275 275 276 278 278
256 257 257 258 258 259 260 261 262 262 263 263 264 265 265 266 267 267 268 269 270 270 272 272 272 272 272 272 273 273 274 275 274 276 275 274 275 275 274 274 274 275 277
256 257 258 260 261 261 262 262 262 263 263 264 265 266 267 267 267 268 268 268 269 270 271 272 272 272 273 273 273 274 274 274 273 274 275 275 276 275 274 273 273 273 275
257 258 259 260 261 262 262 263 264 264 264 265 266 267 267 267 268 268 269 269 269 270 270 271 272 272 272 272 273 272 274 274 273 273 273 275 274 275 274 273 273 272 273
258 258 259 260 260 262 263 264 264 265 266 266 266 267 267 268 268 268 269 269 270 269 270 270 271 272 272 272 271 271 272 273 273 273 272 272 273 274 275 274 273 273 273
260 261 261 261 262 262 263 264 265 266 267 267 267 267 268 268 269 269 269 270 270 270 269 269 270 270 272 272 271 271 270 270 271 272 271 271 271 273 274 273 273 274 274
262 262 262 263 265 265 265 265 266 267 267 268 268 268 268 269 269 269 270 270 270 270 270 270 270 270 271 272 271 270 269 269 270 270 270 269 269 270 271 272 271 271 272
263 263 263 264 265 266 266 267 267 267 267 268 269 269 269 269 269 269 269 269 270 271 271 270 270 271 271 271 271 270 270 270 269 269 270 270 269 269 269 270 270 270 270
264 265 265 265 265 265 266 266 267 267 267 267 268 269 269 269 269 269 269 269 269 270 270 270 270 270 270 271 271 271 269 269 269 269 269 269 269 269 268 268 269 270 270
266 266 266 266 266 266 267 267 268 268 268 268 269 269 270 270 270 270 270 270 269 269 270 270 270 270 270 270 270 270 270 269 269 269 269 269 269 269 268 268 268 269 269
267 268 268 268 269 269 268 268 269 269 269 269 270 271 271 271 271 271 271 270 270 270 270 270 270 270 270 269 269 269 269 268 268 268 268 268 268 268 268 268 268 268 268
268 269 270 270 270 270 270 270 270 271 271 271 272 272 272 273 273 272 272 272 271 271 271 271 270 270 269 269 268 268 268 268 268 268 267 267 267 266 266 267 267 267 267
269 271 272 272 272 271 271 270 271 272 272 272 273 274 273 274 273 273 273 273 273 273 272 272 271 271 269 269 268 268 267 267 267 267 266 265 266 265 264 265 265 265 265
271 272 273 273 273 273 273 272 273 273 274 274 275 275 275 275 274 274 274 274 275 274 274 273 272 271 270 269 268 268 267 268 267 267 266 265 265 265 263 263 264 264 263
273 274 274 274 273 273 273 274 274 275 276 276 276 277 278 277 276 276 276 276 276 276 276 274 273 272 271 270 269 268 267 268 268 267 265 264 265 264 263 262 262 263 263
275 276 276 276 275 275 276 276 277 277 278 278 279 279 279 279 278 277 277 277 277 277 277 276 275 274 272 271 270 269 268 267 266 265 264 263 263 263 263 262 262 262 262
276 276 277 277 277 276 277 278 279 280 280 281 280 280 280 279 279 278 280 279 278 277 278 278 276 275 273 272 271 271 269 266 264 264 264 263 262 262 262 262 262 261 260
278 278 279 278 278 278 279 280 281 281 281 281 281 281 281 280 281 281 281 281 280 279 278 278 277 276 274 272 271 271 270 268 265 263 262 261 261 262 261 261 261 260 259
280 280 280 280 280 280 281 281 282 282 282 282 282 282 282 282 282 282 282 282 282 280 279 279 278 276 275 274 272 270 270 269 268 266 263 261 260 261 260 260 260 259 258
282 281 282 281 281 282 282 283 284 284 284 283 283 283 284 283 283 283 283 282 282 281 281 280 279 277 276 274 272 270 269 269 268 266 264 261 260 259 259 258 257 256 256
Height
5853 5854 5855 5855 5856 5856 5857 5857 5858 5858 5859 5859 5860 5860 5861 5861 5861 5862 5862 5862 5862 5862 5862 5862 5862 5862 5862 5862 5862 5862 5862 5862 5861 5861 5861 5860 5859 5859 5858 5857 5857 5856 5855
5851 5851 5852 5853 5853 5854 5854 5855 5855 5856 5856 5856 5857 5857 5858 5858 5859 5859 5859 5859 5859 5859 5859 5859 5859 5859 5859 5860 5860 5860 5860 5859 5859 5859 5858 5858 5857 5857 5856 5855 5854 5854 5853
5847 5848 5849 5849 5850 5851 5851 5852 5852 5853 5853 5854 5854 5855 5855 5855 5856 5856 5856 5856 5857 5857 5856 5856 5856 5856 5856 5857 5857 5857 5857 5856 5856 5856 5855 5855 5855 5854 5854 5853 5852 5851 5850
5844 5844 5845 5846 5847 5847 5848 5848 5849 5850 5850 5850 5851 5851 5852 5852 5852 5853 5853 5853 5853 5853 5853 5853 5853 5853 5853 5853 5853 5854 5853 5853 5853 5852 5852 5852 5851 5851 5850 5850 5849 5848 5847
5840 5840 5841 5842 5842 5843 5844 5845 5845 5846 5846 5847 5847 5848 5848 5849 5849 5849 5849 5849 5850 5850 5850 5850 5850 5849 5849 5850 5850 5850 5850 5849 5849 5849 5849 5848 5848 5847 5847 5846 5846 5845 5844
5835 5836 5837 5838 5838 5839 5840 5840 5841 5842 5842 5843 5843 5844 5844 5845 5845 5845 5845 5845 5845 5846 5846 5845 5845 5845 5846 5846 5846 5846 5846 5845 5845 5845 5845 5844 5844 5843 5843 5842 5842 5841 5841
5831 5832 5832 5833 5833 5834 5835 5836 5837 5837 5838 5838 5839 5839 5840 5840 5840 5841 5841 5841 5841 5841 5841 5841 5841 5841 5841 5841 5841 5841 5841 5841 5841 5841 5841 5840 5840 5839 5839 5838 5837 5837 5837
5826 5827 5827 5828 5829 5829 5830 5831 5832 5832 5833 5833 5834 5834 5835 5835 5835 5836 5836 5836 5836 5836 5836 5836 5836 5836 5836 5836 5836 5836 5836 5836 5836 5836 5836 5835 5835 5835 5834 5834 5833 5832 5832
5821 5821 5822 5822 5823 5824 5825 5825 5826 5826 5827 5828 5828 5828 5829 5829 5830 5830 5830 5830 5830 5831 5830 5830 5830 5831 5831 5831 5831 5831 5831 5831 5831 5831 5831 5830 5830 5829 5829 5828 5828 5828 5827
5815 5816 5816 5817 5817 5818 5819 5819 5820 5820 5821 5821 5822 5822 5823 5823 5823 5824 5824 5824 5824 5824 5824 5824 5825 5825 5825 5825 5825 5825 5825 5825 5825 5825 5825 5825 5824 5824 5823 5823 5822 5822 5822
5809 5810 5810 5811 5811 5812 5812 5813 5813 5814 5814 5815 5815 5815 5816 5816 5816 5817 5817 5817 5817 5817 5817 5818 5818 5818 5818 5818 5818 5818 5818 5818 5818 5819 5819 5819 5818 5818 5817 5817 5817 5816 5816
5803 5803 5804 5804 5805 5805 5806 5806 5806 5807 5807 5807 5808 5808 5808 5809 5809 5809 5809 5809 5809 5810 5810 5810 5810 5810 5810 5810 5810 5811 5811 5811 5811 5811 5811 5811 5811 5811 5811 5810 5810 5810 5810
5796 5797 5797 5797 5798 5798 5798 5799 5799 5799 5799 5799 5800 5800 5801 5801 5801 5801 5801 5801 5801 5801 5802 5802 5802 5802 5802 5802 5802 5802 5802 5803 5803 5803 5803 5803 5803 5803 5803 5803 5803 5803 5803
5789 5789 5790 5790 5790 5790 5791 5791 5791 5791 5791 5791 5791 5792 5792 5792 5792 5792 5792 5792 5792 5793 5793 5793 5793 5793 5793 5793 5793 5794 5794 5794 5794 5794 5795 5795 5795 5795 5795 5795 5795 5795 5795
5782 5782 5782 5782 5782 5782 5783 5783 5783 5783 5783 5783 5783 5783 5783 5783 5783 5783 5783 5783 5783 5783 5783 5783 5783 5783 5783 5783 5783 5784 5784 5784 5785 5785 5785 5786 5786 5786 5786 5787 5787 5787 5787
5775 5775 5775 5774 5774 5774 5774 5774 5774 5774 5774 5774 5773 5773 5773 5773 5773 5773 5773 5773 5773 5773 5773 5773 5773 5773 5773 5773 5773 5773 5774 5774 5774 5775 5775 5776 5776 5776 5777 5777 5778 5778 5778
5767 5767 5766 5766 5766 5765 5765 5765 5765 5764 5764 5764 5764 5763 5763 5763 5763 5763 5762 5762 5762 5762 5762 5761 5761 5761 5762 5762 5762 5762 5762 5763 5763 5764 5764 5765 5766 5766 5766 5767 5768 5768 5769
5759 5759 5758 5757 5757 5756 5756 5755 5755 5754 5754 5754 5753 5753 5752 5752 5752 5751 5751 5751 5751 5750 5749 5749 5749 5749 5749 5749 5749 5750 5750 5751 5752 5752 5752 5754 5754 5755 5756 5757 5758 5758 5759
5750 5750 5749 5748 5747 5747 5746 5746 5745 5744 5743 5743 5742 5742 5741 5740 5740 5740 5739 5739 5738 5738 5737 5736 5736 5735 5735 5736 5736 5737 5737 5738 5739 5739 5740 5741 5742 5743 5744 5745 5746 5747 5748
5741 5740 5740 5739 5738 5737 5736 5736 5735 5734 5733 5732 5731 5730 5729 5728 5728 5727 5726 5726 5725 5724 5723 5722 5722 5721 5721 5721 5721 5723 5723 5724 5725 5726 5726 5727 5728 5730 5731 5733 5734 5735 5737
5732 5731 5730 5729 5728 5727 5727 5726 5725 5724 5722 5721 5720 5718 5717 5716 5715 5714 5713 5712 5711 5710 5709 5708 5707 5707 5706 5705 5706 5708 5709 5709 5710 5711 5712 5713 5715 5716 5717 5719 5721 5722 5724
5722 5721 5720 5719 5718 5717 5716 5715 5714 5713 5711 5710 5708 5707 5705 5703 5702 5700 5699 5698 5697 5696 5694 5692 5691 5691 5691 5689 5689 5690 5693 5695 5695 5696 5697 5698 5700 5701 5703 5704 5706 5708 5710
5712 5710 5709 5708 5707 5706 5705 5704 5702 5701 5699 5698 5696 5694 5692 5690 5688 5686 5685 5683 5681 5680 5678 5676 5675 5674 5674 5673 5672 5672 5674 5677 5679 5681 5681 5682 5684 5685 5687 5689 5691 5693 5695
5701 5700 5698 5697 5696 5695 5693 5692 5690 5689 5687 5685 5683 5681 5679 5676 5674 5672 5669 5667 5666 5663 5662 5660 5658 5657 5656 5656 5655 5654 5654 5656 5659 5663 5665 5665 5667 5669 5671 5673 5675 5677 5679
5689 5688 5687 5685 5684 5682 5681 5679 5677 5676 5674 5672 5669 5667 5665 5662 5659 5656 5654 5651 5649 5646 5644 5642 5640 5639 5638 5638 5637 5637 5636 5637 5638 5641 5646 5649 5650 5652 5654 5656 5658 5660 5663
5679 5677 5675 5673 5672 5670 5668 5666 5664 5662 5660 5657 5655 5652 5650 5647 5644 5640 5637 5634 5632 5629 5627 5625 5623 5621 5619 5619 5618 5618 5618 5619 5620 5621 5625 5629 5632 5635 5637 5638 5641 5644 5647